www.pogodaiklimat.ru

Погода и климат >> Архив погоды >> Мали >> Bamako


ПОГОДА в Bamako

  • Прогноз погоды в Bamako
  • Монитор погоды в Bamako
  • Климат города

АРХИВ ПОГОДЫ в Bamako

Время (UTC), дата Ветер
(напр.,м/с)
 
Видим.   Явления Облачность Т
(С)
Тd
(С)
f
(%)
Тe
(С)
Тes
(С)
Комфортность P
(гПа)
Po
(гПа)
Тmin
(С)
Tmax
(С)
R
(мм)
R24
(мм)
S
(см)
06 19.06 Ю 2 10 км 4/0
[Ci sp]
+24.7 +23.3 92 +33 +33 очень
душно
1008.6 968.4 +24.7
09 19.06 З 2 10 км 1/0
[Ci sp]
+30.8 +20.6 55 +38 +46 очень
душно
1009.2 969.0
12 19.06 ЮЗ 5 10 км 1/0
[Ci sp]
+35.4 +19.9 40 +41 +52 опасность
перегрева
1008.3 968.5
15 19.06 В 4 10 км 4/1 900 м
[Sc Ci sp]
+37.6 +17.9 32 +41 +49 опасность
перегрева
1006.5 966.6
18 19.06 В 3 10 км 4/0
[Ci sp]
+37.0 +17.5 32 +40 +41 очень
душно
1005.1 965.1 +38.6
21 19.06 СЗ 4 10 км гроза без осадков 6/1 900 м
[Cb cap Ac lent Ci sp]
+31.8 +17.4 42 +36 +36 очень
душно
1006.7 966.9
00 20.06 Ю 5 10 км гроза, ливневой дождь 10/3 900 м
[Cb cap Ac As]
+23.2 +21.1 88 +31 +31 очень
душно
1009.9 969.8 6
03 20.06 Ю 4 10 км зарница {гроза, дождь} 8/1 900 м
[Cb cap Ac As]
+22.8 +20.5 87 +30 +30 очень
душно
1007.3 967.4
06 20.06 Ю 2 10 км {гроза, дождь} 9/1 900 м
[Cb cap Ac As]
+23.2 +22.9 98 +32 +32 очень
душно
1008.3 968.4 +22.6 7
09 20.06 штиль 0 10 км 8/0
[Ac lent Ci sp]
+26.0 +22.4 81 +34 +42 очень
душно
1010.2 969.9
12 20.06 Ю 1 10 км 9/1 900 м
[Sc Ac As Ci sp]
+31.0 +21.1 56 +39 +51 опасность
солнечного
удара
1010.6 970.0
15 20.06 Ю 1 10 км 9/1 900 м
[Sc Ac As Ci sp]
+31.0 +21.1 56 +39 +47 очень
душно
1010.6 970.0
18 20.06 СВ 1 10 км {гроза, дождь} 8/1 900 м
[Sc Ac As]
+26.1 +21.3 75 +33 +34 очень
душно
1008.9 968.0 +30.8 2
21 20.06 ЮЗ 3 10 км 6/1 900 м
[Sc Ac lent Ci sp]
+24.4 +22.8 91 +32 +32 очень
душно
1011.1 970.2
00 21.06 СВ 2 10 км 6/1 900 м
[Sc Ac lent Ci sp]
+24.5 +22.9 91 +32 +32 очень
душно
1011.1 970.6
03 21.06 ЮЗ 3 10 км гроза без осадков {дождь} 6/1 900 м
[Cb cap Ac As]
+23.7 +22.7 94 +31 +31 очень
душно
1009.7 968.7
06 21.06 штиль 0 10 км в посл. час дождь {гроза} 9/1 900 м
[Sc Ac As]
+23.2 +23.0 99 +32 +32 очень
душно
1009.8 968.9 +23.2 3
09 21.06 ЮЗ 4 10 км 9/3 900 м
[Sc Ac As Ci sp]
+24.6 +22.6 89 +32 +35 очень
душно
1011.9 970.9
12 21.06 ЮЗ 6 10 км 8/5 900 м
[Sc Ac As]
+27.8 +23.1 76 +37 +40 очень
душно
1011.5 970.7
15 21.06 ЮЗ 4 10 км гроза без осадков {дождь} 9/4 900 м
[Cb cap Ac lent Ci sp]
+25.6 +23.3 87 +34 +38 очень
душно
1010.4 969.7
18 21.06 ЮЗ 6 10 км 8/5 900 м
[Sc Ac As]
+27.8 +23.1 76 +37 +38 очень
душно
1011.5 970.7
21 21.06 ЮЗ 2 10 км 6/1 900 м
[Sc Ac lent]
+24.3 +22.4 89 +32 +32 очень
душно
1012.2 971.2
00 22.06 ЮЗ 2 10 км 6/1 900 м
[Sc Ac lent]
+24.0 +22.6 92 +31 +31 очень
душно
1012.9 972.1
03 22.06 ЮЗ 2 10 км 6/1 900 м
[Sc Ac As]
+23.4 +21.9 91 +32 +32 очень
душно
1012.6 971.8
06 22.06 Ю 3 10 км 6/1 900 м
[Sc Ac As]
+23.0 +22.9 99 +32 +32 очень
душно
1012.5 971.7 +22.6 7
09 22.06 Ю 2 10 км 6/1 900 м
[Sc Ac lent]
+25.4 +23.4 89 +34 +39 очень
душно
1013.7 972.9
12 22.06 ЮЗ 3 10 км 6/4 900 м
[Sc Ac lent Ci sp]
+29.0 +22.4 68 +38 +47 очень
душно
1012.9 972.4
15 22.06 ЮЗ 4 10 км 6/4 900 м
[Sc Ac lent Ci sp]
+32.0 +21.0 52 +39 +44 очень
душно
1011.3 970.8
18 22.06 ЮЗ 4 10 км 6/4 900 м
[Sc Ac lent Ci sp]
+31.0 +20.8 55 +38 +39 очень
душно
1010.4 969.8 +32.2
21 22.06 штиль 0 10 км 6/1 900 м
[Sc Ac lent Ci sp]
+26.8 +23.4 82 +36 +36 очень
душно
1011.3 970.8
00 23.06 ЮЗ 1 10 км 4/1 900 м
[Sc Ac lent Ci sp]
+25.0 +23.6 92 +34 +34 очень
душно
1012.9 972.2
03 23.06 штиль 0 10 км 6/1 900 м
[Sc Ac lent Ci sp]
+24.3 +23.0 92 +32 +32 очень
душно
1011.1 970.6
06 23.06 штиль 0 10 км 4/1 900 м
[Sc Ac lent Ci sp]
+23.4 +22.8 96 +33 +33 очень
душно
1011.3 970.9 +23.4
09 23.06 СЗ 3 10 км 4/0
[Ac lent Ci sp]
+29.4 +22.3 66 +38 +44 очень
душно
1012.3 971.8
12 23.06 С 3 10 км 3/1 900 м
[Sc Ci sp]
+32.7 +22.3 54 +42 +56 опасность
перегрева
1011.7 971.2
15 23.06 С 3 10 км 4/3 900 м
[Sc Ci sp]
+35.4 +21.1 43 +42 +50 опасность
перегрева
1008.4 968.4
18 23.06 ЮЗ 4 10 км 5/1 900 м
[Cb cap Ci sp]
+34.2 +22.4 50 +43 +44 опасность
перегрева
1006.5 966.5 +35.7
21 23.06 ЮЗ 1 10 км 6/1 900 м
[Sc Ac As]
+28.8 +22.5 69 +38 +38 очень
душно
1008.1 967.8
00 24.06 З 5 10 км зарница 8/1 900 м
[Cb cap Ac As Ci sp]
+29.0 +20.5 60 +36 +36 очень
душно
1008.5 968.4
03 24.06 ЮЗ 4 10 км гроза без осадков 8/1 900 м
[Cb cap Ac As Ci sp]
+26.2 +21.5 75 +33 +33 очень
душно
1007.4 967.4
06 24.06 ЮЗ 3 10 км зарница {гроза} 5/1 900 м
[Cb cap Ac As]
+25.5 +21.9 81 +33 +33 очень
душно
1006.7 966.6 +25.0
09 24.06 ЮЗ 5 10 км в посл. час гроза 9/0
[Ac As Ci sp]
+27.1 +21.7 72 +35 +37 очень
душно
1007.9 967.7
12 24.06 Ю 6 10 км {гроза} 9/1 900 м
[Sc Ac As]
+29.8 +21.3 60 +37 +40 очень
душно
1009.4 969.4
15 24.06 ЮЗ 8 10 км 9/1 900 м
[Sc Ac As Ci sp]
+30.2 +22.8 65 +40 +41 очень
душно
1008.4 968.0
18 24.06 ЮЗ 6 10 км 9/1 900 м
[Sc Ac As Ci sp]
+29.5 +22.3 65 +38 +39 очень
душно
1007.0 966.6 +30.8
21 24.06 ЮЗ 4 10 км 8/1 900 м
[Sc Ac As Ci sp]
+27.2 +26.1 94 +41 +41 опасность
перегрева
1009.5 969.2
00 25.06 ЮЗ 3 10 км 8/1 900 м
[Sc Ac As Ci sp]
+26.2 +21.8 77 +34 +34 очень
душно
1010.3 970.0
03 25.06 ЮЗ 2 10 км 8/1 900 м
[Sc Ac lent Ci sp]
+25.1 +22.3 84 +33 +33 очень
душно
1009.8 969.5
06 25.06 Ю 3 10 км 9/1 900 м
[Sc Ac As Ci sp]
+24.1 +22.0 88 +31 +31 очень
душно
1008.8 968.4 +24.0
09 25.06 ЮЗ 5 10 км 9/1 900 м
[Sc Ac As Ci sp]
+25.6 +21.8 80 +33 +35 очень
душно
1010.9 970.1
12 25.06 ЮЗ 6 10 км 8/4 900 м
[Sc Ac lent Ci sp]
+29.0 +21.7 65 +37 +40 очень
душно
1011.8 971.2
15 25.06 ЮЗ 5 10 км 9/4 900 м
[Sc Ac As]
+30.0 +22.3 63 +39 +41 очень
душно
1010.0 969.5
18 25.06 ЮЗ 5 10 км 6/1 900 м
[Cb cap Ac lent Ci sp]
+30.4 +21.7 60 +39 +39 очень
душно
1008.9 968.3 +30.6
21 25.06 ЮЗ 3 10 км слабый дождь 9/1 900 м
[Cb cap Ac As]
+24.0 +22.6 92 +31 +31 очень
душно
1012.4 971.4
00 26.06 ЮЗ 2 10 км зарница {дождь} 6/1 900 м
[Cb cap Ac lent Ci sp]
+23.4 +22.6 95 +32 +32 очень
душно
1012.7 971.9

 

Местоположение метеостанции Bamako (Мали): широта 12.53 долгота -7.95 высота над уровнем моря 381 м.

В архиве по умолчанию представлена погода в Bamako за последнюю неделю. Архивные данные за месяц целиком и за предыдущие месяцы, начиная с января 2011 года, Вы можете получить, выбрав интересующий диапазон дат из раскрывающегося списка и нажав кнопку "Ввод!".

Внимание! Время в таблицах - всемирное. Для получения местного времени необходимо прибавить поправку, которая в Bamako равна 0 ч.

Смотрите также архив погоды в соседних городах и на ближайших метеорологических станциях:

Погода в Bougouni (Мали) (133 км)
Погода в Kita (Мали) (175 км)
Погода в Segou (Мали) (218 км)
Погода в Koutiala (Мали) (270 км)
Погода в Sikasso (Мали) (280 км)
Погода в Nara (Мали) (302 км)
Погода в Odienne (Кот-д'Ивуар) (335 км)
Погода в Nioro Du Sahel (Мали) (336 км)
Погода в San (Мали) (350 км)
Погода в Kenieba (Мали) (358 км)

Пояснения к столбцам:

Ветер - указаны скорость ветра в м/с - средняя за 10 мин, порывы в срок и между сроками (в фигурных скобках) и направление, откуда дует ветер: С - северный, СВ - северо-восточный, В - восточный, ЮВ - юго-восточный, Ю - южный, ЮЗ - юго-западный, З - западный, СЗ - северо-западный.
Видимость - горизонтальная дальность видимости в метрах или километрах. При видимости от 1 до 10 км при отсутствии осадков обычно наблюдается дымка, при ухудшении видимости до 1 км и менее - туман. В сухую погоду видимость может ухудшаться дымом, пылью или мглою.
Явления - указаны атмосферные явления, наблюдавшиеся в срок или в последний час перед сроком; фигурными скобками обозначены явления, наблюдавшиеся между сроками (за 1-3 часа до срока); квадратными скобками обозначены град или гололедные отложения с указанием их диаметра в мм.
Облачность - указаны через наклонную черту общая и нижняя облачность в баллах и высота нижней границы облаков в метрах; квадратными скобками обозначены формы облаков: Ci - перистые, Cs - перисто-слоистые, Cc - перисто-кучевые, Ac - высококучевые, As - высокослоистые, Sc - слоисто-кучевые, Ns - слоисто-дождевые, Cu - кучевые, Cb - кучево-дождевые. Подробнее классификацию облаков см. в Атласе облаков (PDF).
T - Температура воздуха - температура, измеренная на высоте 2 м над землей.
Td - Температура точки росы - температура, при понижении до которой содержащийся в воздухе водяной пар достигнет насыщения.
f - Относительная влажность воздуха - влажноcть воздуха, измеренная на высоте 2 м над землей.
Te - Эффективная температура - температура, которую ощущает одетый по сезону человек в тени. Характеристика душности погоды. При расчете учитывается влияние влажности воздуха и скорости ветра на теплоощущения человека.
Tes - Эффективная температура на солнце - температура, которую ощущает человек, с поправкой на солнечный нагрев. Характеристика знойности погоды. Зависит от высоты солнца над горизонтом, облачности и скорости ветра. Ночью, в пасмурную погоду, а также при ветре 12 м/с и более поправка равна нулю.
P - Атмосферное давление - приведенное к уровню моря атмосферное давление.
Po - Атмосферное давление - измеренное на уровне метеостанции атмосферное давление.
Tmin - Минимальная температура - минимум температуры воздуха на высоте 2 м над землей.
Tmax - Максимальная температура - максимум температуры воздуха на высоте 2 м над землей.
R - Количество осадков - Количество выпавших осадков за период времени, мм. При наведении курсора мыши на число - период времени, за который выпало указанное количество осадков.
R24 - Количество осадков - Количество выпавших осадков за 24 часа, мм.
S - Снежный покров - Высота снежного покрова, см. При наведении курсора мыши на число - состояние снежного покрова и степень покрытия местности в баллах.